Showing default

GSAT 17, 42815

Orbit data source: Space-Track

GSAT 17, 42815 is a payload satellite owned by ISRO (IN) in GEO that was launched on Wed, 28 Jun 2017 UTC via an ARIANE 5ECA launch vehicle from the French Guiana (FRGUI). Payloads include a variety of satellites, spacecraft, and rockets equipped with specific instruments for various scientific and technological missions. These include communications satellites like Starlink; space stations such as the ISS; scientific satellites like the Hubble; Earth observation satellites from companies like Planet Labs, Umbra, and HawkEye 360; GPS; miniature CubeSats for education and research; and military/defense satellites.

Not visible in the next 10 days
GSAT 17 details
Identifier
42815, 2017-040B
Orbit
GEO
Last TLE update10 hours ago
Origin
Flag of INISRO (IN / IND)
ManufacturerISRO SAC/Banga
MissionOperational Civil Communications
Bus & MotorI3K, ISRO LAM
Mass3,477 kg wet, ~1,400 kg dry
Launch date (UTC)
2017-06-28 (7 years ago)
Launch vehicle
ARIANE 5ECA
Launch site
French Guiana (FRGUI)
Object type
Payload
Rocket body
Debris
Shape & HBRBox + 2 Pan, 20 m
Radar Cross Section15.081 m², Large (>1 m²)

Expand to show TLE details & history

TLE from 10 hours ago
0 GSAT 17
1 42815U 17040B   24361.41368698 -.00000230  00000-0  00000-0 0  9999
2 42815   0.0224  90.2141 0006705 172.6143  74.9968  1.00272046 27395
Epoch: 2024-12-26T09:55Z
Definitive object data (Epoch: 2024-12-26T09:55:42.555Z)
Latitude-0.01824°
Longitude93.57129°
Altitude35,778.649 km
Speed3.075 km/s
True Right ascension22h 31m 34s
True Declination0° 01' 06"
Sunlit
Object was in daylight at TLE epoch
Visualization TLE readout
Latitude0.02164°
Longitude-122.7433°
Altitude35,808.211 km
Speed3.073 km/s
Apparent Right ascension07h 58m 40s
Apparent Declination-4° 56' 46"
Sunlit
Object is in daylight
Visualization observer readout
Local Sidereal Time18:52:02
Azimuth332.4° NNW
Elevation-51.941°
Doppler factor1
Orbital elements
Apogee altitude35,815.864 km
Perigee altitude35,759.32 km
Semi-major axis42,165.729 km
Eccentricity0.0006705
Inclination0.0224°
RAAN90.2141°
Arg. of periapsis172.6143°
True anomaly75.07103°
Mean anomaly74.9968°
Eccentric anomaly75.03391°
Mean motion0.25067 °/min
BSTARUnknown
Orbital period1436.15 mins
Loading historical data...
42815 neighbors
Authenticating...
Loading maneuver chart data...
Loading historical data...
Loading historical data...
Loading historical data...
Loading historical data...
Loading historical data...
Loading historical data...
Loading historical data...
Other satellites on launch #40 in the year 2017 (2017-06-28 UTC)

GSAT 17 Visibility forecast

Observer location: undefined°, undefined

GSAT 17 is not visible in the next 10 days
Span
Click to sort rows by Start time (UTC) header in descending order
Start Az.
Max El. time (UTC)
Max El. Az.
Max El.
End time (UTC)
End Az.
|